Location: DARK SKY Beskydy - Park tmavé oblohy, www.darkskybeskydy.cz
(49.4926°N, 18.5016°E)
Time: 03:14:47
(UTC+02:00)

A-11 Canister half - Pass Details

Date: 23 February 2024
Orbit: 1513 x 1686 km, 47.2° (Epoch: 24 April)

Event Time Altitude Azimuth Distance (km) Brightness Sun altitude
Rises 04:15:35 0° 256° (WSW) 4,930 - -24.4°
Reaches altitude 10° 04:18:47 10° 255° (WSW) 3,933 - -23.9°
Exits shadow 04:23:51 35° 250° (WSW) 2,457 9.5 -23.1°
Maximum altitude 04:28:52 77° 172° (S) 1,680 9.1 -22.3°
Drops below altitude 10° 04:38:37 10° 88° (E) 3,816 12.2 -20.7°
Sets 04:41:40 0° 88° (E) 4,779 13.2 -20.2°
